Hot Springs, VA

4:29 PM EST on February 22, 2017 (GMT -0500)
Ingalls

Weather History for KHSP - February, 2013

Change the Weather History Date:

Monday, February 25, 2013

  Actual Average Record
Temperature  
Mean Temperature 24 °F -  
Max Temperature 32 °F 38 °F 57 °F (2001)
Min Temperature 17 °F 23 °F 14 °F (2015)
Degree Days  
Heating Degree Days 40    
Moisture  
Dew Point 17 °F    
Average Humidity 76    
Maximum Humidity 93    
Minimum Humidity 55    
Precipitation  
Precipitation 0.00 in - - ()
Sea Level Pressure  
Sea Level Pressure 30.04 in    
Wind  
Wind Speed 6 mph (East)    
Max Wind Speed 12 mph    
Max Gust Speed 17 mph    
Visibility 10 miles    
Events      
Averages and records for this station are not official NWS values.
T = Trace of Precipitation, MM = Missing Value Source: NWS Daily Summary

Daily Weather History Graph

Daily Weather History Graph

Search for Another Location

Airport or City:

Trip Planner

Search our weather history database for the weather conditions in past years. The results will help you decide how hot, cold, wet, or windy it might be!

Date:

Astronomy

Feb. 25, 2013 Rise Set
Actual Time 6:56 AM EST 6:08 PM EST
Civil Twilight 6:29 AM EST 6:35 PM EST
Nautical Twilight 5:59 AM EST 7:06 PM EST
Astronomical Twilight 5:28 AM EST 7:36 PM EST
Moon 6:19 PM EST (2/25) 6:26 AM EST (2/25)
Length of Visible Light 12h 05m
Length of Day
11h 12m
Full, 100% of the Moon is Illuminated
Feb 25
Full
Feb 25
Full
Mar 4
Last Quarter
Mar 11
New
Mar 19
First Quarter

Hourly Weather History & Observations

Time (EST) Temp. Windchill Dew Point Humidity Pressure Visibility Wind Dir Wind Speed Gust Speed Precip Events Conditions
12:15 AM 21.2 °F 10.1 °F 19.4 °F 93% 29.99 in 10.0 mi NW 10.4 mph 16.1 mph N/A   Clear
12:35 AM 21.2 °F 12.6 °F 19.4 °F 93% 30.00 in 10.0 mi NNW 6.9 mph - N/A   Clear
12:55 AM 21.2 °F 12.6 °F 17.6 °F 86% 30.00 in 10.0 mi NNW 6.9 mph - N/A   Clear
1:15 AM 21.2 °F 10.1 °F 17.6 °F 86% 30.00 in 10.0 mi NW 10.4 mph - N/A   Clear
1:35 AM 21.2 °F 11.7 °F 17.6 °F 86% 30.00 in 10.0 mi NNW 8.1 mph - N/A   Clear
1:55 AM 21.2 °F 10.1 °F 17.6 °F 86% 29.99 in 10.0 mi NW 10.4 mph - N/A   Clear
2:35 AM 21.2 °F 12.6 °F 17.6 °F 86% 29.99 in 10.0 mi NW 6.9 mph - N/A   Clear
2:55 AM 19.4 °F 10.4 °F 17.6 °F 93% 30.00 in 10.0 mi WNW 6.9 mph - N/A   Clear
3:15 AM 19.4 °F 12.8 °F 17.6 °F 93% 30.00 in 10.0 mi NW 4.6 mph - N/A   Clear
3:35 AM 19.4 °F - 17.6 °F 93% 30.00 in 10.0 mi Calm Calm - N/A   Clear
3:55 AM 19.4 °F - 17.6 °F 93% 30.01 in 10.0 mi Calm Calm - N/A   Clear
4:15 AM 19.4 °F - 17.6 °F 93% 30.02 in 10.0 mi Calm Calm - N/A   Clear
4:35 AM 19.4 °F - 15.8 °F 86% 30.02 in 10.0 mi Calm Calm - N/A   Clear
4:55 AM 19.4 °F - 17.6 °F 93% 30.02 in 10.0 mi Calm Calm - N/A   Clear
5:15 AM 19.4 °F - 17.6 °F 93% 30.03 in 10.0 mi Calm Calm - N/A   Clear
5:35 AM 19.4 °F 14.3 °F 15.8 °F 86% 30.03 in 10.0 mi NE 3.5 mph - N/A   Clear
5:55 AM 19.4 °F - 15.8 °F 86% 30.03 in 10.0 mi Calm Calm - N/A   Clear
6:15 AM 19.4 °F - 15.8 °F 86% 30.03 in 10.0 mi Calm Calm - N/A   Clear
6:35 AM 17.6 °F - 14.0 °F 86% 30.03 in 10.0 mi Calm Calm - N/A   Clear
6:55 AM 17.6 °F 12.3 °F 12.2 °F 79% 30.02 in 10.0 mi North 3.5 mph - N/A   Clear
7:15 AM 17.6 °F 9.3 °F 14.0 °F 86% 30.02 in 10.0 mi NNE 5.8 mph - N/A   Clear
7:35 AM 19.4 °F 9.5 °F 14.0 °F 80% 30.02 in 10.0 mi North 8.1 mph - N/A   Clear
7:55 AM 19.4 °F 11.5 °F 14.0 °F 80% 30.03 in 10.0 mi East 5.8 mph - N/A   Clear
8:15 AM 19.4 °F 10.4 °F 14.0 °F 80% 30.05 in 10.0 mi East 6.9 mph - N/A   Clear
8:35 AM 19.4 °F 12.8 °F 15.8 °F 86% 30.07 in 10.0 mi East 4.6 mph - N/A   Clear
8:55 AM 21.2 °F 14.9 °F 15.8 °F 80% 30.07 in 10.0 mi East 4.6 mph - N/A   Clear
9:15 AM 21.2 °F - 15.8 °F 80% 30.07 in 10.0 mi Calm Calm - N/A   Clear
9:35 AM 21.2 °F 16.4 °F 15.8 °F 80% 30.07 in 10.0 mi ENE 3.5 mph - N/A   Clear
9:55 AM 21.2 °F 13.6 °F 15.8 °F 80% 30.07 in 10.0 mi ENE 5.8 mph - N/A   Clear
10:15 AM 21.2 °F 14.9 °F 15.8 °F 80% 30.07 in 10.0 mi NE 4.6 mph - N/A   Clear
10:35 AM 23.0 °F - 15.8 °F 74% 30.08 in 10.0 mi Calm Calm - N/A   Clear
10:55 AM 24.8 °F - 15.8 °F 69% 30.08 in 10.0 mi Calm Calm - N/A   Unknown
11:35 AM 24.8 °F 17.9 °F 15.8 °F 69% 30.08 in 10.0 mi East 5.8 mph - N/A   Clear
11:55 AM 26.6 °F 21.2 °F 15.8 °F 64% 30.08 in 10.0 mi ESE 4.6 mph - N/A   Clear
12:15 PM 26.6 °F - 15.8 °F 64% 30.08 in 10.0 mi Calm Calm - N/A   Clear
12:35 PM 26.6 °F 22.6 °F 17.6 °F 69% 30.07 in 10.0 mi East 3.5 mph - N/A   Clear
12:55 PM 28.4 °F 23.3 °F 15.8 °F 59% 30.06 in 10.0 mi ESE 4.6 mph - N/A   Clear
1:15 PM 28.4 °F - 17.6 °F 64% 30.06 in 10.0 mi Calm Calm - N/A   Clear
1:35 PM 28.4 °F 22.2 °F 17.6 °F 64% 30.04 in 10.0 mi SE 5.8 mph - N/A   Clear
2:15 PM 30.2 °F 26.7 °F 17.6 °F 60% 30.04 in 10.0 mi ENE 3.5 mph - N/A   Clear
2:56 PM 30.2 °F 25.4 °F 17.6 °F 60% 30.04 in 10.0 mi SSE 4.6 mph - N/A   Clear
3:15 PM 32.0 °F 27.5 °F 17.6 °F 55% 30.04 in 10.0 mi East 4.6 mph - N/A   Clear
3:35 PM 32.0 °F 26.4 °F 17.6 °F 55% 30.05 in 10.0 mi SE 5.8 mph - N/A   Clear
3:55 PM 32.0 °F 26.4 °F 17.6 °F 55% 30.05 in 10.0 mi SSE 5.8 mph - N/A   Clear
4:56 PM 32.0 °F 25.6 °F 17.6 °F 55% 30.05 in 10.0 mi SE 6.9 mph - N/A   Clear
5:16 PM 30.2 °F 23.4 °F 17.6 °F 60% 30.04 in 10.0 mi SE 6.9 mph - N/A   Clear
5:35 PM 30.2 °F 25.4 °F 17.6 °F 60% 30.05 in 10.0 mi SE 4.6 mph - N/A   Clear
5:55 PM 28.4 °F 21.2 °F 17.6 °F 64% 30.04 in 10.0 mi ESE 6.9 mph - N/A   Clear
6:15 PM 28.4 °F 22.2 °F 17.6 °F 64% 30.04 in 10.0 mi SE 5.8 mph - N/A   Clear
6:35 PM 28.4 °F 19.7 °F 17.6 °F 64% 30.06 in 10.0 mi SE 9.2 mph - N/A   Clear
7:15 PM 26.6 °F 17.5 °F 17.6 °F 69% 30.06 in 10.0 mi SSE 9.2 mph - N/A   Clear
7:35 PM 26.6 °F 16.2 °F 17.6 °F 69% 30.06 in 10.0 mi SE 11.5 mph - N/A   Clear
8:16 PM 26.6 °F 16.8 °F 17.6 °F 69% 30.05 in 10.0 mi SE 10.4 mph - N/A   Clear
8:35 PM 26.6 °F 16.8 °F 17.6 °F 69% 30.04 in 10.0 mi SE 10.4 mph - N/A   Clear
8:55 PM 24.8 °F 15.3 °F 17.6 °F 74% 30.05 in 10.0 mi SE 9.2 mph - N/A   Clear
9:15 PM 24.8 °F 15.3 °F 17.6 °F 74% 30.05 in 10.0 mi SE 9.2 mph - N/A   Clear
9:55 PM 24.8 °F 15.3 °F 17.6 °F 74% 30.04 in 10.0 mi ESE 9.2 mph - N/A   Clear
10:15 PM 24.8 °F 14.6 °F 17.6 °F 74% 30.04 in 10.0 mi ESE 10.4 mph - N/A   Clear
10:35 PM 24.8 °F 14.0 °F 17.6 °F 74% 30.06 in 10.0 mi SE 11.5 mph 17.3 mph N/A   Clear
10:55 PM 24.8 °F 14.6 °F 15.8 °F 69% 30.05 in 10.0 mi SE 10.4 mph - N/A   Clear
11:15 PM 24.8 °F 14.6 °F 15.8 °F 69% 30.06 in 10.0 mi SE 10.4 mph - N/A   Clear
11:35 PM 24.8 °F 16.1 °F 15.8 °F 69% 30.04 in 10.0 mi SE 8.1 mph - N/A   Clear
11:55 PM 24.8 °F 17.9 °F 15.8 °F 69% 30.04 in 10.0 mi SE 5.8 mph - N/A   Clear